Rickenbacker, OH

7:05 AM EST on January 16, 2018 (GMT -0500)
Rickenbacker International

Weather History for KLCK - August, 2014

Change the Weather History Date:

Saturday, August 16, 2014

  Actual Average Record
Temperature  
Mean Temperature 64 °F -  
Max Temperature 81 °F 82 °F 90 °F (2012)
Min Temperature 47 °F 62 °F 47 °F (2014)
Degree Days  
Heating Degree Days 1    
Growing Degree Days 14 (Base 50)    
Moisture  
Dew Point 52 °F    
Average Humidity 65    
Maximum Humidity 85    
Minimum Humidity 25    
Precipitation  
Precipitation 0.00 in - - ()
Sea Level Pressure  
Sea Level Pressure 30.00 in    
Wind  
Wind Speed 2 mph (SW)    
Max Wind Speed 14 mph    
Max Gust Speed 18 mph    
Visibility 10 miles    
Events Rain    
Averages and records for this station are not official NWS values.
T = Trace of Precipitation, MM = Missing Value Source: NWS Daily Summary

Daily Weather History Graph

Daily Weather History Graph

Search for Another Location

Airport or City:

Trip Planner

Search our weather history database for the weather conditions in past years. The results will help you decide how hot, cold, wet, or windy it might be!

Date:

Astronomy

Aug. 16, 2014 Rise Set
Actual Time 6:44 AM EDT 8:26 PM EDT
Civil Twilight 6:15 AM EDT 8:55 PM EDT
Nautical Twilight 5:40 AM EDT 9:30 PM EDT
Astronomical Twilight 5:03 AM EDT 10:07 PM EDT
Moon No Moon Rise 1:28 PM EDT
Length of Visible Light 14h 39m
Length of Day
13h 42m
Waning Gibbous, 59% of the Moon is Illuminated
Aug 16
Waning Gibbous
Aug 17
Last Quarter
Aug 25
New
Sep 2
First Quarter
Sep 8
Full

Hourly Weather History & Observations

Time (EDT) Temp. Dew Point Humidity Pressure Visibility Wind Dir Wind Speed Gust Speed Precip Events Conditions
12:15 AM 56.8 °F 46.8 °F 69% 30.04 in 10.0 mi Calm Calm - N/A   Clear
12:35 AM 56.5 °F 47.1 °F 71% 30.03 in 10.0 mi Calm Calm - N/A   Clear
12:55 AM 56.3 °F 46.6 °F 70% 30.03 in 10.0 mi Calm Calm - N/A   Clear
1:15 AM 54.9 °F 46.2 °F 73% 30.03 in 10.0 mi Calm Calm - N/A   Clear
1:35 AM 54.0 °F 46.0 °F 75% 30.02 in 10.0 mi Calm Calm - N/A   Clear
1:55 AM 54.3 °F 46.6 °F 75% 30.03 in 10.0 mi Calm Calm - N/A   Clear
2:15 AM 53.8 °F 46.8 °F 77% 30.03 in 10.0 mi Calm Calm - N/A   Clear
2:35 AM 53.8 °F 46.9 °F 78% 30.02 in 10.0 mi Calm Calm - N/A   Clear
2:55 AM 53.6 °F 46.8 °F 78% 30.02 in 10.0 mi Calm Calm - N/A   Clear
3:15 AM 52.5 °F 46.4 °F 80% 30.02 in 10.0 mi Calm Calm - N/A   Clear
3:35 AM 52.3 °F 46.2 °F 80% 30.01 in 10.0 mi Calm Calm - N/A   Clear
3:55 AM 51.1 °F 45.3 °F 81% 30.01 in 10.0 mi Calm Calm - N/A   Clear
4:15 AM 50.7 °F 44.6 °F 80% 30.01 in 10.0 mi Calm Calm - N/A   Clear
4:35 AM 49.3 °F 44.1 °F 82% 30.00 in 10.0 mi SSE 3.5 mph - N/A   Clear
4:55 AM 49.6 °F 44.6 °F 83% 30.00 in 10.0 mi Calm Calm - N/A   Clear
5:15 AM 49.8 °F 44.8 °F 83% 30.01 in 10.0 mi Calm Calm - N/A   Clear
5:35 AM 50.2 °F 44.8 °F 82% 30.01 in 10.0 mi Calm Calm - N/A   Clear
5:55 AM 50.2 °F 44.4 °F 81% 30.01 in 10.0 mi Calm Calm - N/A   Clear
6:15 AM 50.2 °F 44.6 °F 81% 30.02 in 10.0 mi Calm Calm - N/A   Clear
6:35 AM 49.5 °F 44.1 °F 82% 30.02 in 10.0 mi Calm Calm - N/A   Clear
6:55 AM 47.7 °F 42.8 °F 83% 30.02 in 10.0 mi Calm Calm - N/A   Clear
7:15 AM 47.7 °F 43.3 °F 85% 30.02 in 10.0 mi Calm Calm - N/A   Clear
7:35 AM 48.6 °F 43.9 °F 84% 30.03 in 10.0 mi Calm Calm - N/A   Clear
7:55 AM 50.5 °F 45.1 °F 82% 30.03 in 10.0 mi Calm Calm - N/A   Clear
8:15 AM 52.7 °F 46.6 °F 80% 30.03 in 10.0 mi Calm Calm - N/A   Clear
8:35 AM 54.1 °F 47.5 °F 78% 30.03 in 10.0 mi Calm Calm - N/A   Clear
8:55 AM 55.9 °F 48.4 °F 76% 30.03 in 10.0 mi Calm Calm - N/A   Clear
9:15 AM 58.3 °F 49.6 °F 73% 30.03 in 10.0 mi Calm Calm - N/A   Clear
9:35 AM 61.2 °F 49.3 °F 65% 30.03 in 10.0 mi SSW 4.6 mph - N/A   Clear
9:55 AM 63.1 °F 49.3 °F 61% 30.02 in 10.0 mi South 3.5 mph - N/A   Clear
10:15 AM 65.8 °F 49.3 °F 55% 30.02 in 10.0 mi South 6.9 mph - N/A   Clear
10:35 AM 68.2 °F 48.6 °F 49% 30.02 in 10.0 mi South 5.8 mph - N/A   Clear
10:55 AM 70.9 °F 47.8 °F 44% 30.02 in 10.0 mi South 8.1 mph - N/A   Clear
11:15 AM 72.9 °F 47.5 °F 40% 30.02 in 10.0 mi SSW 5.8 mph - N/A   Clear
11:35 AM 74.7 °F 45.5 °F 35% 30.02 in 10.0 mi SSW 5.8 mph - N/A   Clear
11:55 AM 76.1 °F 44.6 °F 33% 30.02 in 10.0 mi SW 9.2 mph - N/A   Clear
12:15 PM 77.5 °F 43.0 °F 29% 30.01 in 10.0 mi WSW 9.2 mph - N/A   Clear
12:35 PM 79.0 °F 40.5 °F 25% 30.01 in 10.0 mi WSW 8.1 mph - N/A   Clear
12:55 PM 79.3 °F 40.3 °F 25% 30.01 in 10.0 mi West 11.5 mph 17.3 mph N/A   Clear
1:10 PM 80.2 °F 41.9 °F 26% 30.01 in 10.0 mi WSW 10.4 mph - N/A   Clear
1:35 PM 81.3 °F 44.4 °F 27% 30.00 in 10.0 mi West 12.7 mph 18.4 mph N/A   Scattered Clouds
1:55 PM 81.5 °F 47.3 °F 30% 30.01 in 10.0 mi WSW 13.8 mph - N/A   Mostly Cloudy
2:15 PM 80.1 °F 50.4 °F 35% 30.00 in 10.0 mi WSW 11.5 mph - N/A   Overcast
2:35 PM 79.5 °F 52.2 °F 38% 30.00 in 10.0 mi WSW 13.8 mph 17.3 mph N/A   Overcast
2:55 PM 78.3 °F 53.4 °F 42% 30.00 in 10.0 mi WSW 10.4 mph - N/A   Overcast
3:15 PM 76.6 °F 54.7 °F 46% 30.00 in 10.0 mi WSW 6.9 mph - N/A Rain Light Rain
3:35 PM 74.1 °F 56.8 °F 55% 30.00 in 10.0 mi West 6.9 mph - N/A Rain Light Rain
3:55 PM 73.2 °F 57.9 °F 59% 30.00 in 10.0 mi WNW 3.5 mph - N/A   Overcast
4:15 PM 74.1 °F 57.2 °F 55% 29.99 in 10.0 mi Calm Calm - N/A   Overcast
4:35 PM 73.8 °F 59.0 °F 60% 29.99 in 10.0 mi Calm Calm - N/A Rain Light Rain
4:55 PM 72.7 °F 61.2 °F 67% 29.99 in 10.0 mi SW 3.5 mph - N/A Rain Light Rain
5:15 PM 72.9 °F 61.5 °F 67% 29.99 in 10.0 mi SSW 5.8 mph - N/A Rain Rain
5:35 PM 72.5 °F 61.2 °F 67% 29.98 in 10.0 mi SSW 5.8 mph - N/A   Overcast
5:55 PM 73.0 °F 60.8 °F 65% 29.98 in 10.0 mi SSW 3.5 mph - N/A   Overcast
6:15 PM 73.4 °F 61.2 °F 65% 29.98 in 10.0 mi SSW 4.6 mph - N/A   Overcast
6:35 PM 73.6 °F 61.5 °F 66% 29.97 in 10.0 mi SW 5.8 mph - N/A   Overcast
6:55 PM 74.1 °F 61.9 °F 65% 29.97 in 10.0 mi SSW 4.6 mph - N/A   Overcast
7:15 PM 74.7 °F 61.3 °F 63% 29.98 in 10.0 mi SW 5.8 mph - N/A   Overcast
7:35 PM 74.5 °F 61.3 °F 63% 29.98 in 10.0 mi SW 5.8 mph - N/A   Overcast
7:55 PM 73.8 °F 61.5 °F 65% 29.98 in 10.0 mi SW 4.6 mph - N/A   Mostly Cloudy
8:15 PM 72.7 °F 61.9 °F 69% 29.97 in 10.0 mi SW 4.6 mph - N/A   Overcast
8:35 PM 72.1 °F 61.7 °F 70% 29.97 in 10.0 mi SSW 3.5 mph - N/A   Overcast
8:55 PM 71.2 °F 61.3 °F 71% 29.97 in 10.0 mi South 3.5 mph - N/A   Scattered Clouds
9:15 PM 70.0 °F 61.5 °F 74% 29.97 in 10.0 mi South 4.6 mph - N/A   Mostly Cloudy
9:35 PM 70.2 °F 61.9 °F 75% 29.97 in 10.0 mi South 5.8 mph - N/A   Overcast
9:55 PM 70.3 °F 62.1 °F 75% 29.97 in 10.0 mi SSW 4.6 mph - N/A   Overcast
10:15 PM 70.5 °F 62.4 °F 75% 29.98 in 10.0 mi SSW 5.8 mph - N/A   Overcast
10:35 PM 70.2 °F 62.6 °F 77% 29.98 in 10.0 mi SW 5.8 mph - N/A   Overcast
10:55 PM 69.8 °F 62.8 °F 78% 29.98 in 10.0 mi SSW 4.6 mph - N/A   Overcast
11:15 PM 69.8 °F 63.0 °F 79% 29.98 in 10.0 mi Calm Calm - N/A   Overcast
11:35 PM 69.8 °F 63.1 °F 79% 29.98 in 10.0 mi Calm Calm - N/A   Overcast
11:55 PM 69.1 °F 63.1 °F 81% 29.98 in 10.0 mi South 3.5 mph - N/A   Overcast